Location: Hartford
(41.7640°N, 72.6860°W)
Time: 08:40:18
(UTC-04:00)

ISS - All Passes

Search period start: 25 October 2014 00:00
Search period end: 03 November 2014 23:00
Orbit: 412 x 416 km, 51.6° (Epoch: 25 October)

Date Brightness Start Highest point End Pass type
(mag) Time Alt. Az. Time Alt. Az. Time Alt. Az.
25 Oct - 12:22:43 10° SSW 12:25:49 38° SE 12:28:57 10° ENE daylight
25 Oct - 13:59:31 10° W 14:02:33 31° NNW 14:05:36 10° NE daylight
25 Oct - 15:37:55 10° NW 15:40:01 15° N 15:42:06 10° NE daylight
25 Oct - 17:15:04 10° NW 17:17:38 20° NNE 17:20:12 10° ENE daylight
25 Oct - 18:51:23 10° NW 18:54:44 80° NE 18:58:04 10° ESE visible
25 Oct - 20:29:35 10° WSW 20:30:59 12° SW 20:32:22 10° SSW visible
26 Oct - 11:34:07 10° S 11:36:45 22° SE 11:39:23 10° E daylight
26 Oct - 13:10:00 10° WSW 13:13:14 47° NNW 13:16:29 10° NE daylight
26 Oct - 14:48:16 10° NW 14:50:32 17° N 14:52:49 10° NNE daylight
26 Oct - 16:25:54 10° NNW 16:28:11 17° N 16:30:29 10° NE daylight
26 Oct - 18:02:13 10° NW 18:05:29 48° NNE 18:08:43 10° ESE daylight
26 Oct - 19:39:21 10° W 19:41:57 21° SW 19:44:33 10° S visible
27 Oct - 10:46:13 10° SSE 10:47:41 12° SE 10:49:10 10° ESE daylight
27 Oct - 12:20:37 10° WSW 12:23:57 78° NW 12:27:17 10° NE daylight
27 Oct - 13:58:30 10° WNW 14:01:03 20° NNW 14:03:36 10° NE daylight
27 Oct - 15:36:35 10° NW 15:38:40 15° N 15:40:46 10° NE daylight
27 Oct - 17:13:04 10° NW 17:16:07 32° NNE 17:19:10 10° E daylight
27 Oct - 18:49:43 10° WNW 18:52:50 37° SW 18:55:56 10° SSE visible
28 Oct - 11:31:24 10° SW 11:34:40 59° SE 11:37:58 10° ENE daylight
28 Oct - 13:08:44 10° W 13:11:34 25° NNW 13:14:24 10° NE daylight
28 Oct - 14:47:05 10° NW 14:49:06 15° N 14:51:08 10° NE daylight
28 Oct - 16:23:53 10° NW 16:26:40 24° NNE 16:29:27 10° ENE daylight
28 Oct - 18:00:17 10° WNW 18:03:36 68° SW 18:06:54 10° SE daylight
29 Oct - 10:42:25 10° SSW 10:45:26 33° SE 10:48:28 10° ENE daylight
29 Oct - 12:19:00 10° W 12:22:05 34° NNW 12:25:11 10° NE daylight
29 Oct - 13:57:23 10° NW 13:59:30 16° N 14:01:37 10° NNE daylight
29 Oct - 15:34:38 10° NNW 15:37:08 19° NNE 15:39:37 10° ENE daylight
29 Oct - 17:10:56 10° NW 17:14:16 70° NNE 17:17:35 10° ESE daylight
29 Oct - 18:48:43 10° W 18:50:34 14° SW 18:52:24 10° SSW visible
30 Oct - 09:53:49 10° S 09:56:13 19° SE 09:58:38 10° E daylight
30 Oct - 11:29:22 10° WSW 11:32:38 53° NNW 11:35:55 10° NE daylight
30 Oct - 13:07:32 10° NW 13:09:52 17° NNW 13:12:13 10° NNE daylight
30 Oct - 14:45:17 10° NNW 14:47:31 16° N 14:49:44 10° NE daylight
30 Oct - 16:21:38 10° NW 16:24:50 42° NNE 16:28:02 10° ESE daylight
30 Oct - 17:58:36 10° WNW 18:01:22 24° SW 18:04:08 10° S daylight
31 Oct - 09:06:19 10° SE 09:07:01 11° SE 09:07:44 10° ESE daylight
31 Oct - 10:39:53 10° SW 10:43:12 90° NNW 10:46:32 10° NE daylight
31 Oct - 12:17:37 10° WNW 12:20:14 21° NNW 12:22:52 10° NE daylight
31 Oct - 13:55:47 10° NW 13:57:50 15° N 13:59:53 10° NE daylight
31 Oct - 15:32:19 10° NW 15:35:18 29° NNE 15:38:16 10° E daylight
31 Oct - 17:08:53 10° WNW 17:12:04 43° SW 17:15:14 10° SSE daylight
01 Nov - 09:50:34 10° SW 09:53:47 50° SE 09:57:02 10° ENE daylight
01 Nov - 11:27:42 10° W 11:30:36 27° NNW 11:33:31 10° NE daylight
01 Nov - 13:06:05 10° NW 13:08:06 15° N 13:10:08 10° NE daylight
01 Nov - 14:42:59 10° NW 14:45:41 22° NNE 14:48:22 10° ENE daylight
01 Nov - 16:19:20 10° WNW 16:22:40 80° SW 16:25:59 10° SE daylight
02 Nov - 08:01:32 10° SSW 08:04:25 28° SE 08:07:18 10° ENE daylight
02 Nov - 09:37:51 10° W 09:40:59 38° NNW 09:44:09 10° NE daylight
02 Nov - 11:16:11 10° NW 11:18:21 16° N 11:20:30 10° NNE daylight
02 Nov - 12:53:34 10° NNW 12:55:58 18° NNE 12:58:22 10° ENE daylight
02 Nov - 14:29:51 10° NW 14:33:09 60° NNE 14:36:26 10° ESE daylight
02 Nov - 16:07:19 10° W 16:09:31 17° SW 16:11:42 10° S daylight
03 Nov - 07:12:57 10° S 07:15:03 16° SE 07:17:10 10° E daylight
03 Nov - 08:48:06 10° WSW 08:51:23 62° NNW 08:54:42 10° NE daylight
03 Nov - 10:26:09 10° WNW 10:28:34 18° NNW 10:30:59 10° NNE daylight
03 Nov - 12:04:02 10° NNW 12:06:11 16° N 12:08:20 10° NE daylight
03 Nov - 13:40:24 10° NW 13:43:33 37° NNE 13:46:40 10° E daylight
03 Nov - 15:17:13 10° WNW 15:20:08 29° SW 15:23:03 10° SSE daylight
